• en Belgique
  • Liste des pays
  • À 7 jours
  • Température de l'eau
  • Carte satellitaire
  • Carte météo
  • Widgets météo
  • user-avatar
    Se connecter

    Météo par heure à Victoria

    Ce jour, 26 Juin, Lundi

    Heure Température Précipitation Vent Pression Humidité
    00:00 +6°C° 0 mm 1 m/s 753 mmHg 99%
    01:00 +5°C° 0 mm 1 m/s 753 mmHg 99%
    02:00 +4°C° 0 mm 0 m/s 753 mmHg 99%
    03:00 +3°C° 0 mm 0 m/s 753 mmHg 99%
    04:00 +3°C° 0 mm 0 m/s 753 mmHg 99%
    05:00 +2°C° 0 mm 0 m/s 754 mmHg 99%
    06:00 +2°C° 0 mm 0 m/s 754 mmHg 99%
    07:00 +1°C° 0 mm 0 m/s 754 mmHg 99%
    08:00 +4°C° 0 mm 0 m/s 755 mmHg 94%
    09:00 +6°C° 0 mm 0 m/s 756 mmHg 88%
    10:00 +9°C° 0 mm 0 m/s 756 mmHg 83%
    11:00 +11°C° 0 mm 0 m/s 756 mmHg 73%
    12:00 +12°C° 0 mm 0 m/s 756 mmHg 64%
    13:00 +14°C° 0 mm 0 m/s 756 mmHg 55%
    14:00 +13°C° 0 mm 0 m/s 756 mmHg 57%
    15:00 +13°C° 0 mm 0 m/s 756 mmHg 60%
    16:00 +12°C° 0 mm 0 m/s 756 mmHg 63%
    17:00 +10°C° 0 mm 0 m/s 756 mmHg 71%
    18:00 +8°C° 0 mm 0 m/s 756 mmHg 79%
    19:00 +6°C° 0 mm 0 m/s 757 mmHg 87%
    20:00 +5°C° 0 mm 0 m/s 757 mmHg 91%
    21:00 +4°C° 0 mm 0 m/s 757 mmHg 94%
    22:00 +3°C° 0 mm 0 m/s 758 mmHg 97%
    23:00 +3°C° 0 mm 0 m/s 757 mmHg 97%

    Demain, 27 Juin, Mardi

    Heure Température Précipitation Vent Pression Humidité
    00:00 +4°C° 0 mm 1 m/s 757 mmHg 97%
    01:00 +5°C° 0 mm 1 m/s 757 mmHg 96%
    02:00 +4°C° 0 mm 1 m/s 757 mmHg 97%
    03:00 +3°C° 0 mm 1 m/s 757 mmHg 97%
    04:00 +2°C° 0 mm 0 m/s 757 mmHg 97%
    05:00 +3°C° 0 mm 1 m/s 757 mmHg 97%
    06:00 +4°C° 0 mm 1 m/s 757 mmHg 97%
    07:00 +4°C° 0 mm 1 m/s 757 mmHg 97%
    08:00 +6°C° 0 mm 1 m/s 757 mmHg 90%
    09:00 +7°C° 0 mm 1 m/s 758 mmHg 84%
    10:00 +9°C° 0 mm 1 m/s 758 mmHg 77%
    11:00 +10°C° 0 mm 1 m/s 757 mmHg 72%
    12:00 +11°C° 0 mm 1 m/s 757 mmHg 66%
    13:00 +12°C° 0 mm 1 m/s 756 mmHg 61%
    14:00 +12°C° 0 mm 1 m/s 756 mmHg 63%
    15:00 +11°C° 0 mm 0 m/s 756 mmHg 64%
    16:00 +11°C° 0 mm 0 m/s 756 mmHg 66%
    17:00 +9°C° 0 mm 0 m/s 756 mmHg 72%
    18:00 +9°C° 0 mm 1 m/s 756 mmHg 79%
    19:00 +8°C° 0 mm 1 m/s 756 mmHg 85%
    20:00 +7°C° 0 mm 1 m/s 756 mmHg 88%
    21:00 +7°C° 0 mm 1 m/s 756 mmHg 90%
    22:00 +6°C° 0 mm 1 m/s 757 mmHg 93%
    23:00 +6°C° 0 mm 1 m/s 756 mmHg 95%

    Après-demain, 28 Juin, Mercredi

    Heure Température Précipitation Vent Pression Humidité
    00:00 +5°C° 0 mm 1 m/s 756 mmHg 96%
    01:00 +5°C° 0 mm 1 m/s 756 mmHg 98%
    02:00 +4°C° 0 mm 0 m/s 756 mmHg 98%
    03:00 +4°C° 0 mm 0 m/s 755 mmHg 98%
    04:00 +4°C° 0 mm 0 m/s 755 mmHg 98%
    05:00 +4°C° 0 mm 0 m/s 755 mmHg 98%
    06:00 +4°C° 0 mm 0 m/s 755 mmHg 98%
    07:00 +4°C° 0 mm 0 m/s 756 mmHg 99%
    08:00 +6°C° 0 mm 0 m/s 756 mmHg 91%
    09:00 +7°C° 0 mm 0 m/s 756 mmHg 84%
    10:00 +9°C° 0 mm 0 m/s 756 mmHg 77%
    11:00 +12°C° 0 mm 1 m/s 755 mmHg 71%
    12:00 +13°C° 0 mm 1 m/s 755 mmHg 66%
    13:00 +14°C° 0 mm 1 m/s 754 mmHg 60%
    14:00 +14°C° 0,1 mm 1 m/s 754 mmHg 63%
    15:00 +13°C° 0,1 mm 0 m/s 754 mmHg 66%
    16:00 +13°C° 0,1 mm 0 m/s 753 mmHg 69%
    17:00 +10°C° 0 mm 0 m/s 753 mmHg 78%
    18:00 +9°C° 0 mm 1 m/s 754 mmHg 87%
    19:00 +7°C° 0 mm 1 m/s 754 mmHg 95%
    20:00 +7°C° 0 mm 1 m/s 754 mmHg 96%
    21:00 +6°C° 0 mm 1 m/s 754 mmHg 96%
    22:00 +6°C° 0 mm 1 m/s 754 mmHg 97%
    23:00 +6°C° 0 mm 1 m/s 754 mmHg 96%

    29 Juin, Jeudi

    Heure Température Précipitation Vent Pression Humidité
    00:00 +6°C° 0 mm 1 m/s 753 mmHg 96%
    01:00 +6°C° 0 mm 1 m/s 753 mmHg 96%
    02:00 +6°C° 0,1 mm 1 m/s 753 mmHg 96%
    03:00 +7°C° 0,1 mm 1 m/s 753 mmHg 97%
    04:00 +7°C° 0,1 mm 1 m/s 753 mmHg 97%
    05:00 +7°C° 0 mm 1 m/s 753 mmHg 98%
    06:00 +7°C° 0 mm 1 m/s 753 mmHg 98%
    07:00 +7°C° 0 mm 1 m/s 753 mmHg 98%
    08:00 +7°C° 0 mm 1 m/s 753 mmHg 95%
    09:00 +7°C° 0 mm 2 m/s 753 mmHg 91%
    10:00 +8°C° 0 mm 2 m/s 753 mmHg 87%
    11:00 +8°C° 0,1 mm 2 m/s 753 mmHg 82%
    12:00 +9°C° 0,1 mm 3 m/s 752 mmHg 76%
    13:00 +10°C° 0,1 mm 3 m/s 752 mmHg 71%
    14:00 +10°C° 0,4 mm 3 m/s 752 mmHg 76%
    15:00 +9°C° 0,4 mm 3 m/s 752 mmHg 81%
    16:00 +9°C° 0,4 mm 3 m/s 752 mmHg 86%
    17:00 +8°C° 0,2 mm 2 m/s 753 mmHg 87%
    18:00 +7°C° 0,2 mm 2 m/s 753 mmHg 87%
    19:00 +6°C° 0,2 mm 2 m/s 754 mmHg 88%
    20:00 +5°C° 0 mm 2 m/s 755 mmHg 88%
    21:00 +5°C° 0 mm 2 m/s 755 mmHg 88%
    22:00 +4°C° 0 mm 2 m/s 756 mmHg 88%
    23:00 +4°C° 0 mm 2 m/s 756 mmHg 89%

    30 Juin, Vendredi

    Heure Température Précipitation Vent Pression Humidité
    00:00 +4°C° 0 mm 1 m/s 757 mmHg 89%
    01:00 +4°C° 0 mm 1 m/s 757 mmHg 90%
    02:00 +4°C° 0 mm 1 m/s 757 mmHg 90%
    03:00 +4°C° 0 mm 1 m/s 757 mmHg 91%
    04:00 +3°C° 0 mm 1 m/s 757 mmHg 91%
    05:00 +3°C° 0 mm 1 m/s 758 mmHg 92%
    06:00 +3°C° 0 mm 1 m/s 758 mmHg 93%
    07:00 +2°C° 0 mm 1 m/s 759 mmHg 95%
    08:00 +4°C° 0 mm 1 m/s 759 mmHg 89%
    09:00 +5°C° 0 mm 1 m/s 760 mmHg 83%
    10:00 +7°C° 0 mm 1 m/s 760 mmHg 78%
    11:00 +8°C° 0 mm 1 m/s 760 mmHg 70%
    12:00 +10°C° 0 mm 1 m/s 759 mmHg 62%
    13:00 +10°C° 0 mm 2 m/s 759 mmHg 54%
    14:00 +11°C° 0 mm 1 m/s 759 mmHg 54%
    15:00 +11°C° 0 mm 1 m/s 759 mmHg 54%
    16:00 +11°C° 0 mm 1 m/s 759 mmHg 54%
    17:00 +9°C° 0 mm 1 m/s 759 mmHg 65%
    18:00 +6°C° 0 mm 1 m/s 760 mmHg 75%
    19:00 +3°C° 0 mm 0 m/s 760 mmHg 86%
    20:00 +2°C° 0 mm 0 m/s 760 mmHg 89%
    21:00 +1°C° 0 mm 0 m/s 760 mmHg 92%
    22:00 0°C° 0 mm 0 m/s 760 mmHg 94%
    23:00 -1°C° 0 mm 0 m/s 760 mmHg 96%

    1 Juillet, Samedi

    Heure Température Précipitation Vent Pression Humidité
    00:00 -1°C° 0 mm 0 m/s 760 mmHg 97%
    01:00 -1°C° 0 mm 0 m/s 760 mmHg 98%
    02:00 -1°C° 0 mm 0 m/s 760 mmHg 98%
    03:00 -2°C° 0 mm 0 m/s 760 mmHg 99%
    04:00 -3°C° 0 mm 0 m/s 759 mmHg 99%
    05:00 -2°C° 0 mm 0 m/s 760 mmHg 99%
    06:00 -1°C° 0 mm 0 m/s 760 mmHg 98%
    07:00 0°C° 0 mm 1 m/s 760 mmHg 98%
    08:00 +3°C° 0 mm 1 m/s 760 mmHg 87%
    09:00 +5°C° 0 mm 1 m/s 760 mmHg 77%
    10:00 +8°C° 0 mm 1 m/s 761 mmHg 66%
    11:00 +9°C° 0 mm 1 m/s 760 mmHg 60%
    12:00 +10°C° 0 mm 1 m/s 760 mmHg 53%
    13:00 +12°C° 0 mm 1 m/s 759 mmHg 47%
    14:00 +12°C° 0 mm 1 m/s 759 mmHg 48%
    15:00 +12°C° 0 mm 1 m/s 758 mmHg 50%
    16:00 +12°C° 0 mm 1 m/s 758 mmHg 51%
    17:00 +9°C° 0 mm 1 m/s 758 mmHg 59%
    18:00 +7°C° 0 mm 1 m/s 759 mmHg 67%
    19:00 +5°C° 0 mm 1 m/s 759 mmHg 75%
    20:00 +4°C° 0 mm 1 m/s 759 mmHg 77%
    21:00 +4°C° 0 mm 1 m/s 759 mmHg 78%
    22:00 +3°C° 0 mm 1 m/s 758 mmHg 80%
    23:00 +3°C° 0 mm 1 m/s 758 mmHg 81%
    Voir plus